Погода в Красной Поляне

Россия / Республика Крым     45˚28′55″N   32˚56′09″E
темп.,
°C
ветер,
м/с
пор.,
м/с
влажн.,
%
обл.,
%
осадки,
мм/ч
давл.,
гПа
погр.,
м
17 января, вс
вс1700:00−3˚св81276100 0.1 1013706
03:00−3˚ссв81179100 0.3 1012762
06:00−3˚св71168100 0.1 1010687
09:00−3˚ссв7969100 0.1 1011691
12:00−4˚ссв81080100 0.1 1012588
15:00−3˚ссв7975100 0.1 1012666
18:00−5˚ссв6878100 0.0 1013713
21:00−5˚ссв5681100 0.1 1014586
18 января, пн
пн1800:00−6˚с5687100 0.2 1016497
03:00−7˚ссз4582100 0.3 1016526
06:00−7˚ссз457499 0.1 1016846
09:00−7˚ссз4675100 0.1 1018672
12:00−6˚с3466100 0.0 1018629
15:00−5˚с446798 0.0 1018753
18:00−6˚сз3581100 0.0 1019519
21:00−6˚ссз4687100 0.3 1020459
19 января, вт
вт1900:00−7˚с4689100 0.3 1021458
03:00−7˚св128098 0.3 102153
06:00−7˚юз1294100 0.7 1020186
09:00−7˚с359398 1.5 1021401
12:00−5˚сз6784100 0.4 1022690
15:00−5˚сз5781100 0.6 1022819
18:00−6˚сз4784100 0.1 1023503
21:00−6˚ссз2584100 0.2 1024205
20 января, ср
ср2000:00−7˚всв2291100 0.1 102549
03:00−8˚вюв238795 0.1 102563
06:00−9˚юв33893 0.0 102551
09:00−8˚юв45926 0.0 102696
12:00−1˚ююв468374 0.0 1026446
15:00+1˚ююв579280 0.1 1024465
18:00−1˚юв459496 0.1 1024113
21:00+1˚юв359897 0.6 1024110
21 января, чт
чт2100:00+2˚юв2396100 0.2 102469
03:00+1˚юв228991 0.6 102470
06:00+2˚юв338781 0.1 102355
09:00+3˚ю348561 0.1 102478
12:00+6˚ююз48850 0.0 1024460
15:00+7˚ююз610840 0.0 1024640
18:00+5˚ююз511885 0.0 1024222
21:00+6˚ююз7138922 0.0 1024336